Torna al catalogo

STARLINK-37566

AttivoComunicazioniSSO
NORAD 68908·PAYLOAD·🇺🇸 United States

Lanciato Apr 30, 2026 da Vandenberg Space Force Base

Loading…

Prossimi Passaggi (prossime 24 ore)

TLE

AggiornatoSource: CelesTrak SupGP

Epoca: Sep 14, 2026, 22:56 UTC

1 68908C 26097P   26257.95604167  .00080940  00000+0  25128-2 0  2572
2 68908  97.2849  92.1314 0001602  97.1758 102.2585 15.33394898    15

Traccia STARLINK-37566 in tempo reale con AllMySat

Download on the App Store